RH
52 56 54 56 54 48 43 48 50 42 31 26 26 27 32 41 45 46 44 42 42 44 47 40 34 23 18 11 9 6 4 4 4 5 5 6 6 7
56 56 58 61 61 58 54 51 50 53 49 32 27 27 31 40 50 54 55 54 49 44 43 40 33 28 15 8 7 5 4 4 4 5 5 6 9 11
59 57 53 60 55 59 59 56 54 51 52 41 37 32 34 38 46 55 59 59 58 53 50 46 37 30 20 7 6 5 4 4 4 5 6 7 10 11
50 53 50 55 55 55 56 52 48 50 49 43 45 43 39 39 47 57 58 60 65 68 63 56 47 34 22 8 6 5 4 3 4 5 6 8 10 11
44 46 45 47 47 44 46 46 46 50 54 52 52 51 52 50 47 55 64 67 73 76 70 63 56 37 24 10 5 4 4 3 4 4 6 9 10 11
48 46 44 43 42 44 45 42 40 44 52 57 57 57 59 57 58 56 59 61 70 75 74 68 63 43 23 11 6 4 4 3 4 4 6 9 10 10
71 66 56 50 48 47 46 47 47 48 49 58 61 56 59 60 59 55 58 65 71 75 73 75 67 56 33 14 8 5 5 4 4 4 6 8 9 10
85 80 92 90 66 55 56 56 55 58 60 64 57 60 56 57 58 66 66 66 88 74 72 70 68 65 46 22 10 5 6 5 4 4 5 7 9 10
99 91 99 97 92 93 100 86 76 72 72 69 70 67 72 64 63 69 68 69 65 61 70 70 70 66 59 30 14 8 8 7 5 5 5 7 8 10
93 97 99 95 96 94 98 98 100 99 98 88 93 97 99 92 85 83 77 77 79 81 84 82 72 64 66 50 22 11 10 9 7 7 6 6 8 9
96 98 93 97 94 99 99 97 99 100 100 100 100 100 100 100 98 97 92 89 93 88 84 86 81 77 65 63 41 18 11 9 8 8 7 7 7 8
82 87 98 92 100 100 99 100 100 99 99 99 100 99 100 100 100 100 97 95 96 99 98 99 98 80 69 61 37 30 16 10 8 7 7 7 8 8
93 88 97 99 99 98 99 98 98 100 98 99 99 100 100 100 99 98 99 98 99 99 98 99 97 78 72 56 41 32 22 15 12 10 8 8 9 9
99 100 100 100 99 100 100 100 99 99 100 100 100 99 100 100 100 100 100 100 100 100 100 100 95 78 72 69 56 53 29 22 20 16 14 15 13 11
100 99 98 99 100 98 97 100 99 99 98 99 100 100 100 100 100 100 100 100 100 100 100 99 100 99 98 98 85 69 55 79 44 36 31 22 18 17
98 100 99 100 99 100 99 100 99 100 100 99 100 100 100 100 100 100 99 99 99 100 100 100 100 99 100 100 100 99 91 62 59 28 24 24 27 27
96 99 100 100 100 100 100 100 98 99 98 100 99 100 100 100 100 100 100 100 100 100 100 100 100 100 100 100 99 96 90 70 36 54 49 61 49 20
100 100 100 100 100 100 100 100 100 100 99 98 100 99 99 99 100 100 99 100 100 100 99 100 100 100 100 99 94 64 40 43 83 83 89 39 15 15
100 100 100 100 100 100 100 100 100 100 100 100 100 100 100 98 99 100 100 100 100 99 99 100 100 99 100 97 91 77 63 73 90 71 30 17 39 71
99 99 99 99 99 99 99 100 100 100 100 100 99 100 100 100 99 99 99 99 99 98 99 99 99 100 99 95 96 85 74 45 36 35 24 75 79 76
100 99 98 99 99 99 99 99 99 99 99 99 99 99 99 99 99 99 99 99 100 100 100 97 96 99 99 98 90 58 39 36 32 27 58 74 74 82
97 98 99 99 99 98 99 99 99 99 100 100 99 99 99 98 100 100 100 100 100 100 98 98 98 98 97 96 77 57 52 56 43 38 49 65 67 90
91 98 100 100 100 99 97 100 100 99 99 100 100 100 99 98 100 100 99 99 100 99 95 96 97 98 97 96 97 96 95 90 85 77 60 60 88 98
Wind_Speed
35 34 33 33 30 28 22 17 15 12 14 18 20 17 19 20 19 19 17 17 18 18 17 15 10 10 13 9 7 6 6 5 5 4 3 2 2 2
35 33 32 33 31 30 28 25 23 21 20 15 13 16 15 19 20 20 19 20 20 20 19 17 14 13 14 12 11 10 8 8 8 7 6 4 3 1
35 33 32 32 30 30 30 29 27 26 26 24 21 18 18 18 20 21 21 22 21 21 22 20 16 16 16 16 14 13 12 11 11 9 8 6 4 2
33 33 32 32 31 30 30 30 29 29 27 27 25 24 22 20 21 22 22 22 22 23 23 21 19 18 19 18 18 16 15 15 13 11 10 8 7 4
32 31 32 32 31 31 31 31 30 29 28 29 28 27 26 24 24 26 26 24 24 23 25 23 21 21 21 21 19 19 17 17 15 14 12 10 8 6
31 30 31 33 32 32 32 32 32 32 31 31 31 31 31 29 27 28 30 29 27 26 27 25 24 24 23 23 20 20 20 19 18 17 15 13 10 8
21 26 33 33 33 32 32 32 33 33 34 34 34 35 36 35 34 31 32 30 29 29 28 28 28 26 26 25 23 22 22 21 20 19 18 16 14 11
25 22 25 28 31 32 33 34 33 33 35 36 37 40 39 39 36 34 31 33 34 32 32 31 28 27 26 27 24 24 24 23 22 21 20 18 16 14
26 26 32 27 27 30 33 35 34 33 35 35 37 40 41 40 35 35 35 33 33 33 28 31 30 29 28 28 26 24 25 25 24 23 22 20 19 18
23 22 24 25 27 27 28 32 36 40 42 41 42 42 40 40 34 29 28 30 35 34 33 30 25 28 29 29 28 27 26 26 25 24 23 22 21 20
23 23 20 22 24 22 24 27 30 32 34 36 40 38 37 35 30 27 30 30 31 32 30 29 27 27 27 30 30 30 29 28 28 27 26 25 25 23
23 23 23 24 24 21 23 23 27 24 25 24 28 31 32 30 29 30 31 29 29 29 31 29 27 29 28 29 29 31 32 30 29 28 28 28 28 27
29 32 30 25 27 25 23 22 21 19 20 21 22 27 29 28 28 30 31 34 34 29 25 23 24 30 30 21 20 29 31 30 32 31 30 31 30 30
20 23 25 26 24 24 23 21 20 17 20 20 22 25 27 26 28 27 29 30 30 30 27 25 26 25 29 32 30 29 22 29 32 31 31 31 30 31
19 22 22 23 21 20 22 21 19 18 18 20 22 20 19 17 23 25 23 24 25 24 24 25 28 27 28 30 29 28 24 26 27 28 31 33 32 31
13 13 14 15 18 18 18 18 18 17 15 15 16 14 13 14 22 24 19 22 25 27 28 30 29 30 32 30 29 30 24 24 23 25 22 25 28 27
8 8 8 8 10 11 10 10 12 14 13 11 12 11 11 14 20 24 25 27 31 30 30 29 26 28 30 28 27 24 20 24 21 17 18 22 25 30
1 3 2 2 3 4 5 6 8 10 12 9 9 9 10 13 15 18 23 26 26 25 26 27 27 25 26 26 26 23 24 22 20 22 28 28 26 20
3 4 3 2 3 2 2 2 3 5 6 8 9 10 11 10 10 17 20 21 23 26 25 21 21 23 26 28 25 26 25 25 22 23 26 26 21 19
4 2 1 0 1 2 3 5 6 7 7 9 9 9 10 11 15 18 19 19 19 19 20 21 24 24 25 24 22 18 18 22 26 29 24 21 21 22
5 5 4 3 4 4 5 6 7 8 8 9 10 12 13 13 12 13 14 15 17 18 19 20 19 21 21 22 26 26 23 21 23 23 25 23 23 26
4 3 2 4 4 5 7 9 8 9 10 11 11 11 12 11 12 13 14 15 18 19 20 20 20 22 23 26 28 26 23 22 23 25 28 26 26 31
3 3 4 4 4 6 7 9 9 8 10 11 11 12 13 14 15 15 16 16 17 17 17 18 19 21 22 23 23 25 25 25 25 28 31 29 31 25
Wind_Direction
228 230 233 238 241 246 248 251 253 259 264 259 253 254 248 243 239 241 240 242 247 254 254 259 251 247 243 251 246 238 226 210 202 192 179 171 136 98
231 232 234 239 241 246 251 252 253 257 262 277 279 265 258 248 243 242 242 245 246 250 253 255 249 248 246 243 240 240 234 223 215 209 201 196 188 162
233 235 238 241 241 244 248 252 255 258 261 263 267 267 254 248 246 244 241 244 245 246 250 252 250 247 243 239 237 236 232 230 225 219 213 217 216 229
236 238 240 242 243 245 248 252 255 258 260 264 264 264 263 255 248 247 246 246 245 246 250 252 252 247 242 237 235 233 231 228 226 223 221 223 221 227
241 243 246 247 247 247 247 250 253 256 256 260 263 264 263 258 250 246 243 242 244 246 247 247 247 243 240 239 234 233 231 229 228 227 225 226 228 230
246 249 251 252 252 252 253 252 253 254 255 255 259 262 263 261 254 249 246 244 244 245 246 245 245 243 239 240 235 234 232 229 227 227 225 227 230 235
243 252 252 253 256 256 257 255 254 252 251 251 254 255 258 257 254 254 249 248 246 247 250 249 246 247 242 241 236 234 233 231 230 229 228 230 231 235
238 253 262 256 252 253 255 255 253 252 251 251 251 253 256 258 259 257 255 248 239 249 248 248 246 246 245 244 242 234 236 235 234 233 233 234 235 238
256 254 263 256 256 260 262 256 256 254 253 251 250 250 252 253 257 258 259 256 260 259 255 251 249 248 244 242 241 238 235 236 237 237 236 238 237 239
250 252 256 256 251 251 260 263 259 259 255 256 257 258 254 253 248 254 260 254 250 248 249 252 256 256 248 243 242 239 236 237 238 239 240 240 241 244
251 248 255 260 263 262 259 263 265 261 263 263 260 260 260 253 244 241 237 239 241 244 246 250 257 257 253 245 242 241 240 238 240 241 242 242 244 246
253 252 255 261 271 267 261 262 262 263 260 256 256 251 251 247 249 241 238 236 242 245 243 243 252 251 249 248 245 240 239 238 241 241 243 244 245 246
256 249 261 266 260 256 265 257 263 272 267 263 254 252 245 239 237 234 233 237 240 243 245 247 251 247 243 247 245 241 241 240 240 241 242 244 244 247
250 252 260 260 255 257 250 260 262 256 254 254 250 247 244 241 238 234 238 244 249 248 252 248 243 240 240 242 243 245 241 240 241 245 245 246 247 249
254 255 257 258 255 258 247 248 246 249 252 256 259 256 257 256 244 235 230 241 240 236 232 234 235 245 244 242 241 241 244 242 251 252 253 245 247 250
258 264 267 259 254 249 239 240 244 246 251 254 259 259 256 253 242 228 243 240 237 236 235 234 237 243 250 251 246 244 234 240 244 248 244 248 250 257
254 262 263 253 242 237 224 243 263 250 237 240 249 255 252 254 246 235 235 238 233 239 235 240 243 254 261 253 242 232 229 242 239 244 255 260 257 253
239 208 211 223 225 215 220 231 224 221 229 229 246 244 251 251 251 249 245 241 239 236 239 252 264 253 248 241 241 234 234 235 250 261 254 252 251 252
168 137 138 140 129 140 147 188 210 209 229 250 254 258 232 256 255 244 232 229 249 262 260 253 248 247 244 249 249 238 236 245 254 252 253 252 255 263
152 149 160 165 249 236 235 238 241 245 244 255 252 234 236 265 261 258 258 261 260 258 255 252 251 252 251 251 254 257 244 247 253 253 245 248 263 268
132 152 176 208 238 253 264 260 257 249 239 243 250 255 260 261 259 256 262 264 263 261 258 255 258 261 259 252 251 253 252 254 257 249 238 260 277 285
146 163 201 229 255 274 277 263 263 258 252 247 241 244 248 256 264 266 265 268 268 269 268 266 263 262 257 254 253 255 252 253 254 250 252 266 281 282
197 214 229 246 256 267 274 276 269 265 268 272 269 264 264 262 264 264 266 267 266 268 267 268 267 266 263 258 258 257 253 251 247 256 257 264 277 268